This demonstration page uses our WeatherBlox Daily Observations layout. Learn more.

Left ArrowRight Arrow

38.20091, -84.87328

Hourly Observations for January 3, 2016

Temp ( °F °C ) Dew Point ( °F °C ) Humidity (%) Winds ( mph kmh ) Pressure ( in mb ) Visibility ( mi km ) Precip ( " mm )
12:53 am 00:53 Clear 30 -1.1 22 -5.6 72 72 SW 8 13 30.08 1019 10 16 0.00 0.00
1:53 am 01:53 Clear 29 -1.7 22 -5.6 75 75 SW 7 11 30.08 1019 10 16 0.00 0.00
2:53 am 02:53 Clear 30 -1.1 22 -5.6 72 72 SW 8 13 30.07 1018 10 16 0.00 0.00
3:53 am 03:53 Clear 31 -0.6 23 -5 72 72 SSW 10 17 30.06 1018 10 16 0.00 0.00
4:53 am 04:53 Clear 29 -1.7 23 -5 78 78 SW 9 15 30.05 1018 10 16 0.00 0.00
5:53 am 05:53 Clear 30 -1.1 24 -4.4 79 79 SW 10 17 30.06 1018 10 16 0.00 0.00
6:53 am 06:53 Clear 29 -1.7 24 -4.4 82 82 SW 8 13 30.06 1018 10 16 0.00 0.00
7:53 am 07:53 Clear 29 -1.7 24 -4.4 82 82 SW 7 11 30.07 1018 10 16 0.00 0.00
8:53 am 08:53 Sunny 31 -0.6 26 -3.3 82 82 WSW 5 7 30.08 1019 10 16 0.00 0.00
9:53 am 09:53 Sunny 34 1.1 27 -2.8 76 76 WSW 6 9 30.08 1019 10 16 0.00 0.00
10:53 am 10:53 Sunny 38 3.3 27 -2.8 65 65 W 10 17 30.09 1019 10 16 0.00 0.00
11:53 am 11:53 Sunny 39 3.9 26 -3.3 60 60 WSW 8 13 30.07 1018 10 16 0.00 0.00
12:53 pm 12:53 Sunny 41 5 26 -3.3 55 55 W 10 17 30.05 1018 10 16 0.00 0.00
1:53 pm 13:53 Sunny 42 5.6 26 -3.3 53 53 NW 12 19 30.04 1017 10 16 0.00 0.00
2:53 pm 14:53 Sunny 43 6.1 26 -3.3 51 51 WNW 9 15 30.04 1017 10 16 0.00 0.00
3:53 pm 15:53 Sunny 42 5.6 26 -3.3 53 53 NW 9 15 30.05 1018 10 16 0.00 0.00
4:53 pm 16:53 Sunny 39 3.9 25 -3.9 57 57 NW 9 15 30.08 1019 10 16 0.00 0.00
5:53 pm 17:53 Clear 34 1.1 23 -5 64 64 NNW 10 17 30.11 1020 10 16 0.00 0.00
6:53 pm 18:53 Clear 32 0 23 -5 69 69 NNW 7 11 30.14 1021 10 16 0.00 0.00
7:53 pm 19:53 Mostly Cloudy 30 -1.1 23 -5 75 75 Calm 30.16 1021 10 16 0.00 0.00
8:53 pm 20:53 Cloudy 33 0.6 23 -5 66 66 NNW 7 11 30.18 1022 10 16 0.00 0.00
9:53 pm 21:53 Cloudy 34 1.1 22 -5.6 61 61 N 9 15 30.17 1022 10 16 0.00 0.00
10:27 pm 22:27 Cloudy 34 1.1 21 -6.1 59 59 N 12 19 30.21 1023 10 16 0.00 0.00
10:53 pm 22:53 Cloudy 33 0.6 20 -6.7 58 58 N 9 15 30.18 1022 10 16 0.00 0.00
11:53 pm 23:53 Cloudy 33 0.6 21 -6.1 61 61 NNW 7 11 30.18 1022 10 16 0.00 0.00

Powered by AerisWeather